Location: Peebles
(55.6412°N, 3.1714°W)
Time: 13:57:53
(UTC+01:00)

Meteor 2-12 Rocket - Pass Details

Date: 26 September 2021
Orbit: 935 x 958 km, 82.5° (Epoch: 17 October)

Event Time Altitude Azimuth Distance (km) Brightness Sun altitude
Rises 19:39:10 0° 183° (S) 3,609 7.4 -6.3°
Reaches altitude 10° 19:41:39 10° 182° (S) 2,665 6.8 -6.6°
Maximum altitude 19:47:43 75° 98° (E) 980 4.4 -7.5°
Drops below altitude 10° 19:53:48 10° 15° (NNE) 2,667 6.8 -8.3°
Sets 19:56:18 0° 13° (NNE) 3,613 7.4 -8.7°
